EW9168 Weather Reports


time (UTC)temp
C
wind
direction
speed
KPH
gust
KPH
rain 1hr
cm
rain 24hr
cm
rain mn
cm
humidity
%
barometer
mb
20260506202017 16 0.0 14.5 0.03 1.83 1.47 95 1003.6
20260506201021 16 0.0 8.0 0.03 1.83 1.47 95 1003.7
20260506200021 16 158 1.6 11.3 0.03 1.83 1.47 95 1003.8
20260506195022 16 0.0 6.4 0.03 1.80 1.45 95 1003.9
20260506194101 16 180 3.2 9.7 0.03 1.80 1.45 94 1004.0
20260506193021 16 158 3.2 12.9 0.05 1.80 1.45 94 1004.1
20260506192018 16 180 1.6 8.0 0.13 1.80 1.45 95 1004.1
20260506191023 15 0.0 4.8 0.43 1.80 1.45 96 1004.2
20260506190021 15 203 1.6 6.4 0.76 1.80 1.45 97 1004.4
20260506185041 15 225 1.6 6.4 0.97 1.78 1.42 97 1004.4
20260506184021 15 0.0 4.8 1.04 1.78 1.42 98 1004.5
20260506183019 14 203 1.6 9.7 1.09 1.75 1.40 98 1004.6
20260506182021 14 270 1.6 8.0 1.07 1.68 1.32 97 1004.7
20260506181017 15 338 1.6 8.0 0.79 1.37 1.02 97 1004.7
20260506180021 15 0.0 3.2 0.48 1.04 0.69 96 1004.8
20260506175042 15 270 1.6 6.4 0.25 0.81 0.46 96 1004.9
20260506174021 15 180 1.6 8.0 0.23 0.74 0.38 96 1004.9
20260506173021 15 135 4.8 19.3 0.15 0.66 0.30 95 1005.0
20260506172021 15 135 3.2 14.5 0.13 0.61 0.25 95 1005.1
20260506171021 15 90 3.2 11.3 0.10 0.58 0.23 95 1005.1
20260506170017 15 135 3.2 12.9 0.10 0.56 0.20 95 1005.3
20260506165021 15 0.0 3.2 0.10 0.56 0.20 95 1005.3
20260506164023 15 0.0 6.4 0.05 0.51 0.15 95 1005.7
20260506163021 15 135 4.8 12.9 0.05 0.51 0.15 94 1005.7
20260506162021 15 135 4.8 14.5 0.05 0.48 0.13 95 1005.7
20260506161021 15 113 3.2 12.9 0.05 0.48 0.13 94 1005.8
20260506160021 15 113 4.8 12.9 0.05 0.46 0.10 94 1006.2
20260506155017 15 135 3.2 16.1 0.05 0.46 0.10 94 1006.5
20260506154021 15 113 1.6 8.0 0.08 0.46 0.10 94 1006.6
20260506153021 15 0.0 4.8 0.08 0.46 0.10 94 1006.7
20260506152021 15 0.0 1.6 0.05 0.43 0.08 94 1006.9
20260506151041 15 0.0 0.0 0.05 0.43 0.08 93 1007.0
20260506150022 15 0.0 0.0 0.03 0.41 0.05 93 1007.0
20260506145018 15 0.0 4.8 0.03 0.41 0.05 92 1006.9
20260506144022 15 158 1.6 9.7 0.00 0.38 0.03 90 1006.9
20260506143041 15 203 1.6 6.4 0.00 0.38 0.03 89 1007.1
20260506142041 15 0.0 4.8 0.00 0.38 0.03 88 1006.9
20260506141023 15 0.0 3.2 0.00 0.38 0.03 88 1006.9
20260506140019 15 0.0 6.4 0.00 0.38 0.03 87 1006.9
20260506135041 15 0.0 3.2 0.00 0.38 0.03 88 1006.8
20260506134017 15 113 1.6 8.0 0.00 0.38 0.03 88 1006.7
20260506133021 15 0.0 4.8 0.00 0.38 0.03 89 1007.0
20260506132021 14 0.0 3.2 0.00 0.38 0.03 91 1007.3
20260506131021 14 0.0 4.8 0.00 0.38 0.03 90 1007.5
20260506125021 14 0.0 8.0 0.00 0.38 0.03 88 1006.8
20260506124042 14 135 1.6 9.7 0.00 0.38 0.03 88 1007.4
20260506123017 14 0.0 6.4 0.00 0.38 0.03 90 1007.3
20260506122021 14 135 1.6 11.3 0.00 0.38 0.03 88 1007.3
20260506121041 14 180 4.8 14.5 0.00 0.38 0.03 89 1007.4
20260506120022 13 158 4.8 17.7 0.00 0.38 0.03 90 1007.3
20260506115021 13 180 4.8 16.1 0.00 0.38 0.03 92 1007.2
20260506114041 13 0.0 4.8 0.00 0.38 0.03 96 1007.3
20260506113017 13 0.0 1.6 0.00 0.38 0.03 97 1007.3
20260506112037 13 0.0 0.0 0.00 0.38 0.03 97 1007.5
20260506111021 12 0.0 0.0 0.00 0.38 0.03 98 1007.6
20260506110041 12 0.0 0.0 0.00 0.38 0.03 97 1007.5
20260506105021 12 0.0 0.0 0.00 0.38 0.03 97 1007.3
20260506104022 12 0.0 0.0 0.00 0.38 0.03 97 1007.4
20260506103021 12 0.0 0.0 0.00 0.38 0.03 97 1007.5
20260506102017 12 0.0 0.0 0.00 0.38 0.03 97 1007.3
20260506101021 12 0.0 0.0 0.00 0.38 0.03 96 1007.2
20260506100021 12 0.0 0.0 0.00 0.38 0.03 96 1007.3
20260506095022 12 0.0 0.0 0.00 0.38 0.03 96 1007.3
20260506094021 12 0.0 0.0 0.00 0.38 0.03 96 1007.3
20260506093019 13 0.0 0.0 0.00 0.38 0.03 96 1007.3
20260506092021 13 0.0 0.0 0.00 0.38 0.03 95 1007.5
20260506091017 13 0.0 0.0 0.00 0.38 0.03 95 1007.5
20260506090021 13 0.0 0.0 0.00 0.38 0.03 95 1007.6
20260506085021 13 0.0 0.0 0.00 0.38 0.03 96 1007.9
20260506084022 13 0.0 0.0 0.00 0.38 0.03 96 1008.3
20260506083041 13 0.0 0.0 0.00 0.38 0.03 96 1008.4
20260506082021 13 0.0 0.0 0.00 0.38 0.03 95 1008.3
20260506081021 13 0.0 1.6 0.00 0.38 0.03 95 1008.1
20260506073021 13 0.0 0.0 0.00 0.38 0.03 95 1008.5
20260506072021 13 0.0 1.6 0.00 0.38 0.03 94 1008.3
20260506071021 14 0.0 0.0 0.00 0.38 0.03 94 1008.6
20260506062021 15 0.0 0.0 0.00 0.38 0.03 93 1008.5
20260506061021 15 0.0 0.0 0.00 0.38 0.03 92 1009.0
20260506051021 14 0.0 0.0 0.03 0.38 0.03 93 1008.4
20260506045021 15 0.0 3.2 0.03 0.38 0.03 92 1008.0
20260506044018 15 0.0 0.0 0.03 0.38 0.03 91 1008.3
20260506043021 16 0.0 0.0 0.03 0.38 0.03 89 1008.4
20260506042021 16 0.0 0.0 0.00 0.36 0.00 86 1008.3
20260506041021 17 0.0 1.6 0.00 0.36 0.00 82 1008.1
20260506040041 17 0.0 0.0 0.00 0.36 0.36 81 1008.2
20260506035041 17 0.0 3.2 0.00 0.36 0.36 80 1007.9
20260506034017 16 180 1.6 9.7 0.00 0.36 0.36 81 1007.9
20260506033020 16 180 1.6 8.0 0.00 0.36 0.36 83 1007.8
20260506032020 16 135 1.6 14.5 0.00 0.36 0.36 83 1007.8
20260506031041 16 0.0 3.2 0.00 0.36 0.36 85 1007.7
20260506030040 16 0.0 1.6 0.00 0.36 0.36 86 1007.7
20260506025020 16 0.0 0.0 0.00 0.36 0.36 86 1007.6
20260506024017 16 0.0 1.6 0.00 0.36 0.36 85 1007.7
20260506023037 16 0.0 6.4 0.00 0.36 0.36 85 1007.5
20260506022020 16 0.0 4.8 0.00 0.36 0.36 85 1007.5
20260506021020 15 0.0 8.0 0.00 0.36 0.36 86 1007.5
20260506020041 15 0.0 3.2 0.00 0.36 0.36 88 1007.2
20260506015019 15 0.0 3.2 0.00 0.36 0.36 89 1007.2
20260506014021 15 0.0 1.6 0.00 0.36 0.36 90 1006.9
20260506013036 15 0.0 0.0 0.00 0.36 0.36 91 1006.9
20260506012020 15 0.0 1.6 0.00 0.36 0.36 91 1006.8
20260506011021 15 0.0 3.2 0.00 0.36 0.36 93 1006.8
20260506010020 15 0.0 1.6 0.00 0.36 0.36 94 1006.7
20260506005040 15 0.0 3.2 0.00 0.36 0.36 95 1006.5
20260506004021 15 0.0 0.0 0.00 0.36 0.36 96 1006.5
20260506003020 15 0.0 1.6 0.00 0.36 0.36 95 1006.5
20260506002037 15 0.0 0.0 0.00 0.36 0.36 95 1006.3
20260506001021 15 0.0 1.6 0.00 0.36 0.36 95 1006.5
20260506000020 15 0.0 1.6 0.00 0.36 0.36 95 1006.4
20260505235041 15 0.0 0.0 0.00 0.36 0.36 94 1006.5
20260505234021 15 0.0 1.6 0.00 0.36 0.36 93 1006.3
20260505233020 15 0.0 3.2 0.00 0.36 0.36 91 1006.0
20260505232020 16 0.0 3.2 0.00 0.36 0.36 92 1006.0
20260505231016 16 0.0 3.2 0.00 0.36 0.36 92 1005.5
20260505230020 16 0.0 3.2 0.00 0.36 0.36 93 1005.5
20260505225041 16 0.0 3.2 0.00 0.36 0.36 93 1005.6
20260505224040 16 0.0 3.2 0.00 0.36 0.36 93 1005.7
20260505223021 16 0.0 6.4 0.00 0.36 0.36 92 1005.3
20260505222020 16 0.0 6.4 0.00 0.36 0.36 93 1005.1
20260505221017 16 0.0 1.6 0.05 0.36 0.36 93 1005.3
20260505220017 16 0.0 1.6 0.05 0.36 0.36 92 1005.1
20260505215041 16 0.0 1.6 0.08 0.36 0.36 89 1004.9
20260505214040 16 203 1.6 11.3 0.36 0.36 0.36 87 1005.0
20260505213040 16 113 3.2 12.9 0.36 0.36 0.36 90 1004.7
20260505212021 16 0.0 6.4 0.36 0.36 0.36 89 1005.8
20260505211020 16 0.0 8.0 0.30 0.30 0.30 88 1005.8
20260505210016 17 293 3.2 17.7 0.30 0.30 0.30 86 1005.4
20260505205020 21 270 6.4 17.7 0.28 0.28 0.28 77 1005.2
20260505204021 25 270 9.7 29.0 0.00 0.00 0.00 51 1004.3
20260505203020 26 270 6.4 19.3 0.00 0.00 0.00 37 1002.6